Flag for U.S.A. Weather past 2 weeks in Virginia Beach, Virginia, U.S.A.

Now
79 °F

Scattered clouds.


Feels Like: 81 °F
Forecast: 71 / 80 °F
Wind: 9 mph from East

Location: Virginia Beach - Oceana

Current Time: Aug 29, 2014 at 2:21:05 PM

Latest Report: Aug 29, 2014 at 1:56 PM


Visibility: 10 mi

Pressure: 30.16 "Hg

Humidity: 58%

Dew point: 63 °F

Location of Virginia BeachLocation

Historic Weather in Virginia Beach — Graph

°F

Virginia Beach temperature yesterday

Maximum temperature yesterday: 86 °F (at 2:56 PM)
Minimum temperature yesterday: 67 °F (at 4:56 AM)
Average temperature yesterday: 77 °F

Past Weeks' High & Low Weather Summary

 TemperatureHumidityPressure
High89 °F (Aug 21, 2:56 PM)97% (Aug 19, 3:56 AM)30.16 "Hg (Aug 19, 3:56 AM)
Low66 °F (Aug 15, 3:56 AM)27% (Aug 14, 1:56 PM)29.76 "Hg (Aug 19, 2:56 AM)
Average76 °F75%29.98 "Hg
* Reported Aug 14 12:56 PM — Aug 29 12:56 PM, Virginia Beach, Weather by CustomWeather, © 2014

Note: Actual official high and low records may vary slightly from our data, if they occured in-between our weather recording intervals... More about our weather records

Advertising

Virginia Beach weather history for previous 24 hours

 ConditionsComfort  
Time TempWeatherWind HumidityBarometerVisibility
12:56 PM
Aug 29
79 °FScattered clouds.12 mph60%30.16 "Hg10 mi
11:56 AM79 °FScattered clouds.14 mph60%30.16 "Hg10 mi
10:56 AM79 °FScattered clouds.13 mph60%30.15 "Hg10 mi
9:56 AM78 °FScattered clouds.14 mph58%30.15 "Hg10 mi
8:56 AM77 °FPartly sunny.10 mph62%30.14 "Hg10 mi
7:56 AM75 °FMostly cloudy.7 mph64%30.13 "Hg10 mi
6:56 AM74 °FPartly cloudy.7 mph67%30.10 "Hg10 mi
5:56 AM74 °FMostly cloudy.8 mph71%30.09 "Hg10 mi
4:56 AM74 °FMostly cloudy.8 mph79%30.07 "Hg10 mi
3:56 AM75 °FOvercast.8 mph88%30.06 "Hg10 mi
2:56 AM73 °FOvercast.No wind94%30.06 "Hg10 mi
1:56 AM73 °FFog.No wind90%30.05 "Hg6 mi
12:56 AM72 °FPassing clouds.No wind93%30.05 "Hg10 mi
11:56 PM
Aug 28
73 °FPassing clouds.No wind90%30.04 "Hg10 mi
10:56 PM74 °FPassing clouds.No wind91%30.03 "Hg10 mi
9:56 PM74 °FPassing clouds.No wind91%30.02 "Hg10 mi
8:56 PM76 °FPassing clouds.No wind85%30.00 "Hg10 mi
7:56 PM78 °FScattered clouds.8 mph79%29.97 "Hg10 mi
6:56 PM83 °FScattered clouds.5 mph55%29.96 "Hg10 mi
5:56 PM85 °FScattered clouds.9 mph53%29.95 "Hg10 mi
4:56 PM86 °FBroken clouds.8 mph61%29.94 "Hg10 mi
3:56 PM86 °FBroken clouds.7 mph59%29.94 "Hg10 mi
2:56 PM86 °FBroken clouds.6 mph51%29.94 "Hg10 mi
Weather by CustomWeather, © 2014

See weather overviewHow to use our weather pages